OTB (44341 NORAD) Tracking and Keplerian Element Data

This shows tracking and keplerian element data for the satellite.

Feedback or suggestion? Click here.




ElementValue
Catalog44341
NameOTB
Epoch Orbit400
Epoch Day203.86931616
Epoch Year2019
RAAN31.2682
Inclination24.0008
Eccentricity0.0012184
Argument of Perigee137.3333
Mean Anonmoly222.8126
Mean Motion14.52839442
Decay Rate2.7E-06
L11 44341U 19036C 19203.86931616 .00000270 00000-0 13970-4 0 9993
L22 44341 24.0008 31.2682 0012184 137.3333 222.8126 14.52839442 4002

Live tracking and technical data element details for OTB (NORAD 44341). OTB can be tracked NOW for your location showing map with azimuth and elevation plus other details from your city location.

Track the satellite on the map from your city or location and see movement details for azimuth, elevation, latitude, longitude, range, height, and movement on the map or in text.







IsCatalogInMostPopularTable: catalog: 44341, numindb: 22
Update: records affected: 1



GetName: 44341 OTB

Hit Count: updated at: Tue, 22 Oct 2019 23:56:21 GMT